Regional Weather Roundup
Issued by NWS Jackson, KY

Home | Current Version | Previous Version | Graphics & Text | Print | Product List | Glossary On
Versions: 1 2 3 4 5 6 7 8 9 10 11 12 13 14 15 16 17 18 19 20 21 22 23 24 25 26 27 28 29 30 31 32 33 34 35 36 37 38 39 40 41 42 43 44 45 46 47 48 49 50
000
ASUS43 KJKL 050910
RWRJKL

EAST KENTUCKY HOURLY WEATHER ROUNDUP
NATIONAL WEATHER SERVICE JACKSON KY
400 AM EST FRI FEB 05 2016

NOTE: "FAIR" INDICATES FEW OR NO CLOUDS BELOW 12,000 FEET WITH
NO SIGNIFICANT WEATHER AND/OR OBSTRUCTIONS TO VISIBILITY.

* THESE REPORTS ARE NOT UNDER NWS QUALITY CONTROL AND MAY NOT
  REPORT WEATHER SUCH AS PRECIPITATION AND FOG.

KYZ079-080-083-085-087-088-110-112-115-119-120-051000
...EASTERN KENTUCKY...

CITY           SKY/WX    TMP DP  RH WIND       PRES   REMARKS
JACKSON        CLEAR     25  17  72 NW5       30.32S WCI  19
LONDON         CLEAR     25  18  74 W3        30.35S
SOMERSET*      CLEAR     23  21  93 CALM      30.40S
MONTICELLO*    CLEAR     20  16  84 NW8       30.41R WCI  10
WILLIAMSBURG*  SUNNY     27  19  74 CALM      30.37S
MIDDLESBORO*   PTCLDY    29  18  61 N5        30.36R WCI  24
HARLAN APT*      N/A     28  18  64 W3        30.32R
HAZARD APT*    SUNNY    N/A N/A N/A W3        30.34S
BLACK MTN*       N/A     16  16 100 N10         N/A  WCI   3
BIG SANDY*     SUNNY     28  18  68 CALM      30.32S
MOREHEAD APT*  MOSUNNY   25  18  74 CALM      30.37S
$$

KYZ035-036-041-042-044-050-067-078-099-051000
...CENTRAL KENTUCKY...

CITY           SKY/WX    TMP DP  RH WIND       PRES   REMARKS
MT STERLING*   CLEAR     23  21  93 CALM      30.37S
DANVILLE*      PTCLDY    25  18  74 NW3       30.38S
RICHMOND*      PTCLDY    25  18  74 CALM      30.36S
LEXINGTON      CLEAR     22  16  78 CALM      30.36S
FRANKFORT      CLEAR     20  16  84 CALM      30.37R
$$

KYZ091>093-OHZ055-061-077-WVZ005-015-034-035-042-051000
...SOUTHERN OHIO/WEST VIRGINIA...

CITY           SKY/WX    TMP DP  RH WIND       PRES   REMARKS
COVINGTON      CLEAR     21  17  84 CALM      30.35F
COLUMBUS       CLEAR     22  13  68 CALM      30.33S
DAYTON         CLEAR     19  16  88 SW7       30.34S WCI  10
WILMINGTON     CLEAR     22  17  81 W5        30.33S WCI  16
HUNTINGTON       N/A     27  17  66 NW8       30.33S WCI  19
CHARLESTON     MOCLDY    30  21  69 NW8       30.30R WCI  22
PINEVILLE*       N/A     29  14  53 MISG      30.29R
BECKLEY        CLOUDY    24  17  74 N18G24    30.17R WCI  10
$$

VAZ002-007-008-TNZ017-027-036-066-071-051000
...SOUTHWEST VIRGINIA/EAST TENNESSEE...

CITY           SKY/WX    TMP DP  RH WIND       PRES   REMARKS
BRISTOL        PTCLDY    29  15  56 W7        30.28R WCI  22
KNOXVILLE      CLEAR     30  18  60 N5        30.35R WCI  25
OAK RIDGE      CLEAR     31  17  56 N7        30.38R WCI  24
CROSSVILLE     CLEAR     25  15  66 CALM      30.33R
NASHVILLE      CLEAR     27  20  75 S3        30.42S
$$

...KEY TO REMARKS...
VSB - VISIBILITY IN MILES
WCI - WIND CHILL INDEX
HX  - HEAT INDEX

$$



USA.gov is the U.S. government's official web portal to all federal, state and local government web resources and services.